Погода в Морше

Россия / Самарская область     52°24′12″N   50°45′10″E
темп.,
°C
ветер,
м/с
пор.,
м/с
влажн.,
%
обл.,
%
осадки,
мм/ч
давл.,
гПа
погр.,
м
16 мая, вс
вс1601:00+20ююв47425 0.0 101992
04:00+19ююв48464 0.0 1020114
07:00+21ююв48475 0.0 1020187
10:00+28ююв68320 0.0 1020579
13:00+31ю78225 0.0 10193600
16:00+31ююз67206 0.0 10183597
19:00+28ююз343355 0.0 101757
22:00+21юв612520 0.0 1019266
17 мая, пн
пн1701:00+20ю48495 0.0 1018122
04:00+19ююв495126 0.0 1018130
07:00+21ююв485056 0.0 1019195
10:00+28ю56285 0.0 1019592
13:00+31ю54185 0.0 10193046
16:00+31ю44175 0.0 10183644
19:00+28ю36295 0.0 1017101
22:00+22ю22351 0.0 101811
18 мая, вт
вт1801:00+21юв22340 0.0 101811
04:00+20всв22360 0.0 101711
07:00+23вюв34390 0.0 1018120
10:00+29вюв35240 0.0 1017734
13:00+32юв32160 0.0 10163662
16:00+32в32155 0.0 10153959
19:00+28всв462918 0.0 1015124
22:00+23в59391 0.0 1016133
19 мая, ср
ср1901:00+21в715550 0.0 1016271
04:00+19в512574 0.0 1016236
07:00+21в5105869 0.0 1016340
10:00+27в664257 0.0 1016945
13:00+29в66350 0.0 10151979
16:00+29вюв77310 0.0 10152403
19:00+26вюв711420 0.0 1015659
22:00+22вюв916460 0.0 1016579
20 мая, чт
чт2001:00+20вюв717470 0.0 1016537
04:00+18юв716480 0.0 1016458
07:00+18юв814530 0.0 1017556
10:00+23юв810440 0.0 10171050
13:00+26ююв78390 0.0 10162105
16:00+26юв7833100 0.0 10152712
19:00+23вюв61135100 0.0 1015600
22:00+17юз357999 0.0 1016154